EW5390 Weather Reports


Display with metric or nautical units.
time (UTC)temp
F
wind
direction
speed
MPH
gust
MPH
rain 1hr
in
rain 24hr
in
rain mn
in
humidity
%
barometer
mb
20260508160554 63 281 1.0 7.0 0.00 0.00 0.00 48 1014.5
20260508160054 63 311 3.0 8.0 0.00 0.00 0.00 45 1014.5
20260508155556 63 321 1.0 8.0 0.00 0.00 0.00 45 1014.5
20260508155055 62 335 3.0 8.0 0.00 0.00 0.00 43 1014.6
20260508154615 62 312 2.0 8.0 0.00 0.00 0.00 44 1014.7
20260508154051 62 321 1.0 8.0 0.00 0.00 0.00 45 1014.8
20260508153556 63 314 0.0 5.0 0.00 0.00 0.00 45 1014.9
20260508153057 62 308 2.0 7.0 0.00 0.00 0.00 44 1014.9
20260508152554 62 200 2.0 7.0 0.00 0.00 0.00 47 1014.9
20260508152055 62 314 3.0 7.0 0.00 0.00 0.00 45 1014.9
20260508151554 62 285 1.0 6.0 0.00 0.00 0.00 48 1014.9
20260508151051 61 0 2.0 7.0 0.00 0.00 0.00 49 1014.9
20260508150557 61 320 3.0 7.0 0.00 0.00 0.00 47 1015.1
20260508150056 62 310 1.0 3.0 0.00 0.00 0.00 48 1015.1
20260508145552 62 335 1.0 3.0 0.00 0.00 0.00 49 1015.0
20260508145052 61 314 1.0 3.0 0.00 0.00 0.00 50 1015.0
20260508144608 61 319 2.0 3.0 0.00 0.00 0.00 47 1015.0
20260508144057 62 337 0.0 2.0 0.00 0.00 0.00 50 1015.0
20260508143552 61 337 1.0 3.0 0.00 0.00 0.00 51 1015.0
20260508143105 60 112 1.0 3.0 0.00 0.00 0.00 50 1015.2
20260508142551 60 313 1.0 2.0 0.00 0.00 0.00 56 1015.2
20260508142055 60 359 0.0 3.0 0.00 0.00 0.00 52 1015.3
20260508141604 59 61 1.0 4.0 0.00 0.00 0.00 55 1015.4
20260508141056 59 62 2.0 4.0 0.00 0.00 0.00 55 1015.4
20260508140554 59 58 1.0 3.0 0.00 0.00 0.00 53 1015.5
20260508140057 59 7 2.0 3.0 0.00 0.00 0.00 51 1015.5
20260508135556 58 307 0.0 3.0 0.00 0.00 0.00 56 1015.5
20260508135053 58 323 2.0 3.0 0.00 0.00 0.00 54 1015.4
20260508134621 58 314 1.0 3.0 0.00 0.00 0.00 58 1015.5
20260508134053 57 0 1.0 3.0 0.00 0.00 0.00 57 1015.6
20260508133552 58 49 1.0 2.0 0.00 0.00 0.00 57 1015.7
20260508133105 57 288 0.0 3.0 0.00 0.00 0.00 60 1015.7
20260508132554 56 0 0.0 3.0 0.00 0.00 0.00 58 1015.7
20260508132056 56 317 1.0 3.0 0.00 0.00 0.00 60 1015.8
20260508131556 56 0 1.0 3.0 0.00 0.00 0.00 62 1015.7
20260508131055 55 67 1.0 3.0 0.00 0.00 0.00 60 1015.7
20260508130554 55 323 1.0 2.0 0.00 0.00 0.00 62 1015.7
20260508130058 55 60 1.0 2.0 0.00 0.00 0.00 64 1015.7
20260508125553 54 335 1.0 2.0 0.00 0.00 0.00 65 1015.7
20260508125055 54 0 1.0 2.0 0.00 0.00 0.00 66 1015.6
20260508124607 54 45 1.0 2.0 0.00 0.00 0.00 67 1015.6
20260508124052 54 14 0.0 2.0 0.00 0.00 0.00 67 1015.6
20260508123552 53 314 0.0 2.0 0.00 0.00 0.00 71 1015.5
20260508123101 53 314 1.0 2.0 0.00 0.00 0.00 71 1015.5
20260508122554 53 0 0.0 1.0 0.00 0.00 0.00 73 1015.4
20260508122052 53 41 0.0 2.0 0.00 0.00 0.00 74 1015.4
20260508121557 52 44 0.0 2.0 0.00 0.00 0.00 76 1015.3
20260508121052 52 44 0.0 2.0 0.00 0.00 0.00 75 1015.3
20260508120555 51 0 0.0 2.0 0.00 0.00 0.00 77 1015.3
20260508120100 51 0 0.0 2.0 0.00 0.00 0.00 78 1015.3
20260508115552 50 0 0.0 1.0 0.00 0.00 0.00 81 1015.1
20260508115055 50 0 0.0 2.0 0.00 0.00 0.00 81 1015.0
20260508114603 50 0 0.0 2.0 0.00 0.00 0.00 80 1015.1
20260508114054 50 354 0.0 1.0 0.00 0.00 0.00 81 1015.1
20260508113553 49 0 0.0 1.0 0.00 0.00 0.00 81 1015.2
20260508113114 49 0 0.0 1.0 0.00 0.00 0.00 81 1015.1
20260508112555 49 0 0.0 1.0 0.00 0.00 0.00 81 1015.0
20260508112051 48 0 0.0 1.0 0.00 0.00 0.00 82 1015.0
20260508111600 48 339 0.0 1.0 0.00 0.00 0.00 83 1014.8
20260508111054 47 0 0.0 0.0 0.00 0.00 0.00 84 1014.8
20260508110553 47 0 0.0 0.0 0.00 0.00 0.00 84 1014.6
20260508105557 47 0 0.0 0.0 0.00 0.00 0.00 86 1014.4
20260508105052 47 0 0.0 0.0 0.00 0.00 0.00 87 1014.4
20260508104603 47 0 0.0 0.0 0.00 0.00 0.00 86 1014.4
20260508104053 47 0 0.0 0.0 0.00 0.00 0.00 85 1014.3
20260508103555 47 0 0.0 0.0 0.00 0.00 0.00 84 1014.2
20260508103059 47 0 0.0 0.0 0.00 0.00 0.00 84 1014.1
20260508102555 47 0 0.0 0.0 0.00 0.00 0.00 83 1014.2
20260508102052 48 0 0.0 1.0 0.00 0.00 0.00 82 1014.1
20260508101558 48 0 0.0 1.0 0.00 0.00 0.00 82 1014.0
20260508101055 48 0 0.0 0.0 0.00 0.00 0.00 81 1014.0
20260508100552 48 0 0.0 0.0 0.00 0.00 0.00 81 1014.0
20260508100112 49 0 0.0 0.0 0.00 0.00 0.00 80 1013.9
20260508095552 49 0 0.0 0.0 0.00 0.00 0.00 80 1013.9
20260508095055 49 0 0.0 1.0 0.00 0.00 0.00 79 1013.8
20260508094604 49 0 0.0 1.0 0.00 0.00 0.00 80 1013.7
20260508094054 49 0 0.0 1.0 0.00 0.00 0.00 80 1013.6
20260508093552 49 0 0.0 1.0 0.00 0.00 0.00 80 1013.5
20260508093056 50 0 0.0 2.0 0.00 0.00 0.00 80 1013.4
20260508092555 50 338 0.0 2.0 0.00 0.00 0.00 80 1013.4
20260508092055 50 0 0.0 3.0 0.00 0.00 0.00 80 1013.4
20260508091603 50 316 0.0 3.0 0.00 0.00 0.00 79 1013.4
20260508091053 50 47 1.0 3.0 0.00 0.00 0.00 80 1013.4
20260508090555 50 0 0.0 2.0 0.00 0.00 0.00 82 1013.3
20260508090114 50 342 0.0 2.0 0.00 0.00 0.00 83 1013.2
20260508085554 49 342 0.0 2.0 0.00 0.00 0.00 85 1013.1
20260508085055 49 0 0.0 1.0 0.00 0.00 0.00 87 1013.1
20260508084558 49 0 0.0 1.0 0.00 0.00 0.00 88 1013.1
20260508084054 49 0 0.0 0.0 0.00 0.00 0.00 88 1013.0
20260508083555 49 302 0.0 0.0 0.00 0.00 0.00 89 1012.9
20260508083059 50 0 0.0 0.0 0.00 0.00 0.00 89 1012.9
20260508082554 50 0 0.0 1.0 0.00 0.00 0.00 89 1012.8
20260508082056 50 0 0.0 1.0 0.00 0.00 0.00 90 1012.8
20260508081604 50 302 0.0 1.0 0.00 0.00 0.00 90 1012.7
20260508081053 50 0 0.0 1.0 0.00 0.00 0.00 90 1012.8
20260508080553 50 0 0.0 1.0 0.00 0.00 0.00 90 1012.6
20260508080055 50 0 0.0 1.0 0.00 0.00 0.00 90 1012.5
20260508075556 50 302 0.0 2.0 0.00 0.00 0.00 90 1012.4
20260508075059 50 302 0.0 2.0 0.00 0.00 0.00 91 1012.3
20260508074555 50 272 1.0 2.0 0.00 0.00 0.00 92 1012.2
20260508074055 50 203 0.0 1.0 0.00 0.00 0.00 92 1012.1
20260508073552 50 0 0.0 1.0 0.00 0.00 0.00 92 1012.1
20260508073110 50 0 0.0 1.0 0.00 0.00 0.00 92 1012.0
20260508072554 50 0 0.0 1.0 0.00 0.00 0.00 92 1011.9
20260508072055 50 0 0.0 2.0 0.00 0.00 0.00 93 1011.8
20260508071605 50 300 0.0 2.0 0.00 0.00 0.00 93 1011.7
20260508071055 50 0 0.0 3.0 0.00 0.00 0.00 93 1011.5
20260508070552 49 292 0.0 3.0 0.00 0.00 0.00 92 1011.3
20260508070058 49 313 1.0 3.0 0.00 0.00 0.00 93 1011.3
20260508065553 49 0 0.0 1.0 0.00 0.04 0.00 92 1011.2
20260508065052 49 0 0.0 1.0 0.00 0.04 0.00 91 1011.0
20260508064612 49 0 0.0 1.0 0.00 0.04 0.00 91 1011.0
20260508064055 49 231 0.0 1.0 0.00 0.04 0.00 91 1011.1
20260508063555 50 0 0.0 1.0 0.00 0.04 0.00 91 1011.0
20260508063109 50 0 0.0 1.0 0.00 0.04 0.00 91 1011.1
20260508062554 50 231 0.0 1.0 0.00 0.04 0.00 91 1011.0
20260508062054 50 166 0.0 0.0 0.00 0.04 0.00 90 1011.0
20260508061606 50 0 0.0 0.0 0.00 0.04 0.00 90 1011.0
20260508061052 50 0 0.0 0.0 0.00 0.04 0.00 90 1011.0
20260508060554 50 0 0.0 0.0 0.00 0.04 0.00 90 1011.1
20260508060105 50 0 0.0 0.0 0.00 0.04 0.00 90 1011.1
20260508055554 50 0 0.0 1.0 0.00 0.19 0.00 90 1011.1
20260508055054 50 0 0.0 1.0 0.00 0.19 0.00 90 1011.0
20260508054556 50 0 0.0 1.0 0.00 0.19 0.00 90 1011.1
20260508054057 50 0 0.0 1.0 0.00 0.19 0.00 90 1011.0
20260508053554 49 0 0.0 1.0 0.00 0.19 0.00 90 1011.1
20260508053058 49 0 0.0 1.0 0.00 0.19 0.00 90 1011.2
20260508052555 49 0 0.0 1.0 0.00 0.19 0.00 90 1011.2
20260508052053 49 0 0.0 1.0 0.00 0.19 0.00 90 1011.1
20260508051607 49 0 0.0 1.0 0.00 0.19 0.00 90 1011.1
20260508051052 49 0 0.0 1.0 0.00 0.19 0.00 90 1011.0
20260508050556 49 0 0.0 1.0 0.00 0.19 0.00 90 1011.1
20260508050055 49 0 0.0 1.0 0.00 0.19 0.00 91 1011.1
20260508045554 49 0 0.0 1.0 0.00 0.21 0.00 91 1011.2
20260508045054 49 0 0.0 1.0 0.00 0.21 0.00 91 1011.1
20260508044554 48 0 0.0 1.0 0.00 0.21 0.00 91 1011.0
20260508044055 48 0 0.0 1.0 0.00 0.21 0.00 91 1010.9
20260508043557 48 0 0.0 0.0 0.00 0.21 0.00 91 1010.9
20260508043055 48 0 0.0 0.0 0.00 0.21 0.00 90 1010.9
20260508042552 48 0 0.0 1.0 0.00 0.21 0.00 90 1010.9
20260508042052 48 0 0.0 1.0 0.00 0.21 0.00 90 1010.9
20260508041555 48 0 0.0 0.0 0.00 0.21 0.00 90 1010.8
20260508041055 48 0 0.0 1.0 0.00 0.21 0.00 90 1010.8
20260508040554 48 0 0.0 1.0 0.00 0.21 0.00 90 1010.8
20260508040100 48 0 0.0 1.0 0.00 0.21 0.00 90 1010.8
20260508035559 49 0 0.0 1.0 0.00 0.21 0.21 90 1010.8
20260508035055 49 0 0.0 1.0 0.00 0.21 0.21 89 1010.8
20260508034554 49 0 0.0 1.0 0.00 0.21 0.21 89 1010.8
20260508034054 49 0 0.0 0.0 0.00 0.21 0.21 89 1010.8
20260508033554 49 0 0.0 0.0 0.00 0.21 0.21 89 1010.8
20260508033059 49 0 0.0 0.0 0.00 0.21 0.21 89 1010.8
20260508032557 49 0 0.0 0.0 0.00 0.21 0.21 89 1010.9
20260508032054 49 0 0.0 0.0 0.00 0.21 0.21 89 1010.9
20260508031558 49 0 0.0 1.0 0.00 0.21 0.21 89 1011.0
20260508031052 49 0 0.0 1.0 0.00 0.21 0.21 89 1011.0
20260508030554 49 0 0.0 1.0 0.00 0.21 0.21 89 1010.8
20260508025554 50 0 0.0 0.0 0.00 0.21 0.21 89 1010.8
20260508025055 50 0 0.0 0.0 0.00 0.21 0.21 89 1010.9
20260508024617 50 0 0.0 0.0 0.00 0.21 0.21 89 1010.8
20260508024053 50 0 0.0 0.0 0.00 0.21 0.21 89 1010.8
20260508023555 50 0 0.0 0.0 0.00 0.21 0.21 88 1010.8
20260508023055 50 0 0.0 0.0 0.00 0.21 0.21 88 1010.7
20260508022551 50 0 0.0 0.0 0.00 0.21 0.21 88 1010.8
20260508022054 50 0 0.0 0.0 0.00 0.21 0.21 88 1010.9
20260508021601 51 0 0.0 0.0 0.00 0.21 0.21 88 1010.8
20260508021053 51 0 0.0 0.0 0.00 0.21 0.21 89 1010.7
20260508020554 51 0 0.0 1.0 0.00 0.21 0.21 89 1010.7
20260508020111 51 0 0.0 1.0 0.00 0.21 0.21 90 1010.8
20260508015552 51 0 0.0 0.0 0.00 0.21 0.21 90 1010.7
20260508015052 51 0 0.0 0.0 0.00 0.21 0.21 89 1010.7
20260508014557 51 0 0.0 0.0 0.00 0.21 0.21 89 1010.6
20260508014055 51 0 0.0 0.0 0.00 0.21 0.21 88 1010.5
20260508013552 51 0 0.0 0.0 0.00 0.21 0.21 88 1010.4
20260508013055 51 0 0.0 0.0 0.00 0.21 0.21 87 1010.4
20260508012555 51 0 0.0 0.0 0.00 0.21 0.21 87 1010.3
20260508012054 52 0 0.0 0.0 0.00 0.21 0.21 87 1010.2
20260508011605 52 0 0.0 0.0 0.00 0.21 0.21 87 1010.1
20260508011053 52 0 0.0 0.0 0.00 0.21 0.21 87 1010.1
20260508010553 52 0 0.0 0.0 0.00 0.21 0.21 86 1010.0
20260508010057 52 0 0.0 0.0 0.00 0.21 0.21 86 1010.1
20260508005607 52 0 0.0 0.0 0.00 0.21 0.21 85 1009.9
20260508005054 53 0 0.0 0.0 0.00 0.21 0.21 85 1010.0
20260508004600 53 0 0.0 1.0 0.00 0.21 0.21 84 1009.9
20260508004051 53 0 0.0 1.0 0.00 0.21 0.21 84 1009.9
20260508003554 54 0 0.0 0.0 0.00 0.21 0.21 83 1009.7
20260508003055 54 0 0.0 0.0 0.00 0.21 0.21 83 1009.7
20260508002554 54 0 0.0 1.0 0.00 0.21 0.21 83 1009.6
20260508002054 54 0 0.0 1.0 0.00 0.21 0.21 83 1009.6
20260508001553 55 0 0.0 0.0 0.00 0.21 0.21 82 1009.5
20260508001053 55 0 0.0 0.0 0.00 0.21 0.21 82 1009.5
20260508000554 56 0 0.0 0.0 0.00 0.21 0.21 82 1009.4
20260508000054 56 0 0.0 0.0 0.00 0.21 0.21 81 1009.3
20260507235553 56 0 0.0 0.0 0.00 0.21 0.21 81 1009.3
20260507235051 57 0 0.0 1.0 0.00 0.21 0.21 80 1009.2
20260507234557 57 0 0.0 1.0 0.00 0.21 0.21 80 1009.1
20260507234052 57 133 0.0 1.0 0.00 0.21 0.21 79 1009.0
20260507233554 57 0 0.0 1.0 0.00 0.21 0.21 79 1009.0
20260507233100 58 0 0.0 2.0 0.00 0.21 0.21 79 1009.0
20260507232551 58 0 0.0 2.0 0.00 0.21 0.21 79 1009.0
20260507232057 58 0 0.0 0.0 0.00 0.21 0.21 78 1008.9
20260507231552 58 0 0.0 0.0 0.00 0.21 0.21 78 1008.9
20260507231055 58 0 0.0 1.0 0.00 0.21 0.21 79 1009.0
20260507230557 58 0 0.0 1.0 0.00 0.21 0.21 78 1008.8
20260507230108 58 0 0.0 1.0 0.00 0.21 0.21 78 1008.8
20260507225553 59 0 0.0 1.0 0.00 0.21 0.21 77 1008.8
20260507225055 59 0 0.0 1.0 0.00 0.21 0.21 77 1008.7
20260507224555 59 0 0.0 1.0 0.00 0.21 0.21 78 1008.7
20260507224057 59 262 0.0 1.0 0.00 0.21 0.21 76 1008.6
20260507223553 59 0 0.0 1.0 0.00 0.21 0.21 77 1008.7
20260507223053 59 297 0.0 2.0 0.00 0.21 0.21 78 1008.8
20260507222553 59 300 0.0 2.0 0.00 0.21 0.21 76 1008.8
20260507222052 59 201 0.0 2.0 0.00 0.21 0.21 76 1008.8
20260507221556 59 230 0.0 2.0 0.00 0.21 0.21 77 1008.9
20260507221054 59 140 0.0 2.0 0.00 0.21 0.21 76 1008.8
20260507220553 59 159 0.0 1.0 0.00 0.21 0.21 77 1008.9
20260507220059 59 1 0.0 1.0 0.00 0.21 0.21 77 1008.8
20260507215556 59 1 0.0 2.0 0.00 0.21 0.21 76 1008.7
20260507215054 59 0 0.0 3.0 0.00 0.21 0.21 75 1008.8
20260507214555 59 148 1.0 3.0 0.00 0.21 0.21 72 1008.8
20260507214055 59 75 0.0 2.0 0.00 0.21 0.21 73 1009.1
20260507213557 59 156 0.0 1.0 0.00 0.21 0.21 73 1009.2
20260507213056 59 0 0.0 1.0 0.00 0.21 0.21 74 1009.3
20260507212556 59 157 0.0 1.0 0.00 0.21 0.21 73 1009.3
20260507212055 59 157 0.0 1.0 0.00 0.21 0.21 73 1009.1
20260507211602 59 0 0.0 1.0 0.00 0.21 0.21 73 1009.3
20260507211052 59 164 0.0 2.0 0.00 0.21 0.21 71 1009.2
20260507210559 59 0 0.0 2.0 0.00 0.21 0.21 69 1009.2
20260507210108 59 163 1.0 2.0 0.00 0.21 0.21 70 1009.1
20260507205554 59 0 0.0 1.0 0.00 0.21 0.21 70 1009.1
20260507205056 59 0 0.0 1.0 0.00 0.21 0.21 69 1008.8
20260507204558 59 152 0.0 1.0 0.00 0.21 0.21 68 1008.7
20260507204053 59 0 0.0 1.0 0.00 0.21 0.21 68 1008.9
20260507203554 58 0 0.0 1.0 0.00 0.21 0.21 68 1008.7
20260507203117 58 158 0.0 2.0 0.00 0.21 0.21 70 1008.8
20260507202553 58 159 0.0 2.0 0.00 0.21 0.21 70 1009.2
20260507202057 58 158 0.0 2.0 0.00 0.21 0.21 70 1009.2
20260507201557 58 0 0.0 2.0 0.00 0.21 0.21 69 1009.1
20260507201053 58 0 0.0 1.0 0.00 0.21 0.21 71 1009.1
20260507200556 58 297 0.0 1.0 0.00 0.21 0.21 71 1009.3
20260507200100 58 0 0.0 1.0 0.00 0.21 0.21 71 1009.1
20260507195555 58 160 0.0 1.0 0.00 0.21 0.21 72 1008.6
20260507195057 58 0 0.0 2.0 0.00 0.21 0.21 69 1008.7
20260507194618 58 62 0.0 3.0 0.00 0.21 0.21 71 1009.0
20260507194053 58 62 2.0 3.0 0.00 0.21 0.21 70 1009.2
20260507193553 58 72 0.0 2.0 0.00 0.21 0.21 72 1009.2
20260507193058 58 72 0.0 2.0 0.00 0.21 0.21 71 1009.2
20260507192553 58 74 0.0 2.0 0.00 0.21 0.21 71 1009.5
20260507192054 57 147 0.0 2.0 0.00 0.21 0.21 71 1009.5
20260507191555 57 53 0.0 2.0 0.00 0.21 0.21 70 1009.6
20260507191055 57 39 0.0 2.0 0.00 0.21 0.21 70 1009.8
20260507190552 57 338 1.0 2.0 0.00 0.21 0.21 70 1009.6
20260507185555 57 123 0.0 1.0 0.00 0.21 0.21 72 1009.9
20260507185053 57 123 0.0 1.0 0.00 0.21 0.21 74 1010.0
20260507184558 57 0 0.0 1.0 0.00 0.21 0.21 73 1010.0
20260507184055 57 0 0.0 1.0 0.00 0.21 0.21 73 1010.3
20260507183554 57 0 0.0 1.0 0.00 0.21 0.21 73 1010.2
20260507183056 57 126 0.0 1.0 0.00 0.21 0.21 70 1009.8
20260507182555 57 0 0.0 1.0 0.00 0.21 0.21 71 1010.2
20260507182053 57 0 0.0 1.0 0.00 0.21 0.21 76 1010.3
20260507181553 57 0 0.0 1.0 0.00 0.21 0.21 71 1010.3
20260507181053 57 0 0.0 1.0 0.00 0.21 0.21 72 1010.4
20260507180553 57 51 0.0 4.0 0.00 0.21 0.21 70 1010.6
20260507180055 57 51 3.0 4.0 0.00 0.21 0.21 69 1010.2
20260507175553 57 58 1.0 4.0 0.00 0.21 0.21 68 1010.3
20260507175054 57 0 0.0 4.0 0.00 0.21 0.21 70 1010.2
20260507174602 57 47 1.0 4.0 0.00 0.21 0.21 66 1010.2
20260507174056 58 146 2.0 4.0 0.00 0.21 0.21 68 1010.3
20260507173553 57 74 1.0 4.0 0.00 0.21 0.21 69 1010.5
20260507173129 57 0 2.0 4.0 0.00 0.21 0.21 68 1010.6
20260507172554 57 72 0.0 4.0 0.00 0.21 0.21 67 1010.6
20260507172051 57 143 0.0 4.0 0.00 0.21 0.21 70 1010.8
20260507171559 57 70 2.0 4.0 0.00 0.21 0.21 69 1010.8
20260507171055 57 48 1.0 4.0 0.00 0.21 0.21 71 1010.7
20260507170554 57 57 2.0 4.0 0.00 0.21 0.21 73 1010.7
20260507170058 57 64 2.0 5.0 0.00 0.21 0.21 71 1010.7
20260507165554 57 57 2.0 5.0 0.00 0.22 0.21 75 1010.8
20260507165053 57 58 0.0 3.0 0.00 0.22 0.21 74 1011.2
20260507164557 57 0 1.0 3.0 0.00 0.22 0.21 74 1011.6
20260507164053 57 73 2.0 3.0 0.00 0.22 0.21 75 1011.5
20260507163552 57 330 2.0 4.0 0.00 0.22 0.21 73 1011.5
20260507163055 57 55 1.0 4.0 0.00 0.22 0.21 75 1011.4
20260507162557 57 63 1.0 4.0 0.00 0.22 0.21 74 1011.5
20260507162056 57 65 2.0 4.0 0.00 0.22 0.21 77 1011.6
20260507161612 57 325 2.0 3.0 0.00 0.22 0.21 76 1011.7
20260507161055 56 59 1.0 2.0 0.00 0.22 0.21 76 1011.6